FW2000 Weather Reports


Display with metric or nautical units.
time (UTC)temp
F
wind
direction
speed
MPH
gust
MPH
rain 1hr
in
rain 24hr
in
rain mn
in
humidity
%
barometer
mb
20260901220511 74 224 5.0 12.0 0.00 0.00 0.00 38 1014.6
20260901220009 74 229 4.0 11.0 0.00 0.00 0.00 38 1014.6
20260901215510 74 204 4.0 12.0 0.00 0.00 0.00 38 1014.6
20260901215012 74 220 5.0 11.0 0.00 0.00 0.00 38 1014.6
20260901214508 73 188 3.0 15.0 0.00 0.00 0.00 39 1014.6
20260901214008 73 187 8.0 15.0 0.00 0.00 0.00 38 1014.5
20260901213510 73 196 4.0 12.0 0.00 0.00 0.00 39 1014.6
20260901213007 74 233 4.0 14.0 0.00 0.00 0.00 37 1014.5
20260901212507 75 215 6.0 14.0 0.00 0.00 0.00 36 1014.7
20260901212007 75 268 4.0 14.0 0.00 0.00 0.00 36 1014.6
20260901211507 74 174 5.0 14.0 0.00 0.00 0.00 35 1014.6
20260901211007 73 227 6.0 16.0 0.00 0.00 0.00 37 1014.5
20260901210507 73 188 8.0 16.0 0.00 0.00 0.00 35 1014.5
20260901210006 73 223 4.0 11.0 0.00 0.00 0.00 35 1014.4
20260901205506 73 184 5.0 17.0 0.00 0.00 0.00 35 1014.4
20260901205005 74 232 8.0 17.0 0.00 0.00 0.00 34 1014.4
20260901204504 74 238 6.0 17.0 0.00 0.00 0.00 34 1014.3
20260901204004 73 216 9.0 17.0 0.00 0.00 0.00 35 1014.4
20260901203503 73 198 8.0 18.0 0.00 0.00 0.00 34 1014.4
20260901203004 73 250 10.0 16.0 0.00 0.00 0.00 34 1014.4
20260901202504 74 188 9.0 17.0 0.00 0.00 0.00 33 1014.4
20260901202002 74 205 7.0 17.0 0.00 0.00 0.00 33 1014.4
20260901201502 73 240 8.0 17.0 0.00 0.00 0.00 34 1014.5
20260901201005 74 167 9.0 17.0 0.00 0.00 0.00 33 1014.6
20260901200502 74 254 5.0 14.0 0.00 0.00 0.00 33 1014.7
20260901200008 74 221 6.0 14.0 0.00 0.00 0.00 32 1014.7
20260901195502 75 193 7.0 14.0 0.00 0.00 0.00 32 1014.8
20260901195000 75 249 2.0 7.0 0.00 0.00 0.00 31 1014.8
20260901194602 75 100 2.0 13.0 0.00 0.00 0.00 36 1014.9
20260901194100 74 57 1.0 13.0 0.00 0.00 0.00 36 1014.9
20260901193600 75 183 3.0 10.0 0.00 0.00 0.00 32 1014.8
20260901193059 75 184 3.0 8.0 0.00 0.00 0.00 32 1014.8
20260901192558 74 311 4.0 11.0 0.00 0.00 0.00 33 1014.9
20260901192057 74 241 4.0 11.0 0.00 0.00 0.00 32 1014.9
20260901191611 74 260 1.0 7.0 0.00 0.00 0.00 34 1015.0
20260901191054 73 302 2.0 13.0 0.00 0.00 0.00 38 1015.0
20260901190553 72 296 4.0 8.0 0.00 0.00 0.00 45 1015.0
20260901190054 72 5 0.0 8.0 0.00 0.00 0.00 45 1015.0
20260901185550 71 296 2.0 9.0 0.00 0.00 0.00 47 1015.1
20260901185049 71 292 1.0 8.0 0.00 0.00 0.00 47 1015.0
20260901184609 70 308 2.0 8.0 0.00 0.00 0.00 49 1015.0
20260901184047 69 298 1.0 7.0 0.00 0.00 0.00 49 1015.0
20260901183549 69 256 1.0 8.0 0.00 0.00 0.00 49 1015.1
20260901183051 69 298 1.0 6.0 0.00 0.00 0.00 49 1015.1
20260901182543 68 281 2.0 8.0 0.00 0.00 0.00 50 1015.0
20260901182042 68 275 3.0 9.0 0.00 0.00 0.00 51 1015.1
20260901181553 68 251 3.0 9.0 0.00 0.00 0.00 52 1015.2
20260901181040 67 275 4.0 8.0 0.00 0.00 0.00 54 1015.1
20260901180539 67 277 4.0 8.0 0.00 0.00 0.00 54 1015.0
20260901180039 67 274 2.0 10.0 0.00 0.00 0.00 54 1015.0
20260901175538 66 275 4.0 10.0 0.00 0.00 0.00 54 1015.0
20260901175036 66 263 2.0 5.0 0.00 0.00 0.00 55 1015.0
20260901174550 65 255 3.0 9.0 0.00 0.00 0.00 56 1014.9
20260901174034 65 277 2.0 7.0 0.00 0.00 0.00 58 1014.9
20260901173532 65 276 3.0 8.0 0.00 0.00 0.00 57 1014.9
20260901173033 64 290 3.0 8.0 0.00 0.00 0.00 58 1014.8
20260901172530 64 281 4.0 8.0 0.00 0.00 0.00 57 1014.8
20260901172029 64 293 2.0 9.0 0.00 0.00 0.00 58 1014.7
20260901171535 64 282 4.0 9.0 0.00 0.00 0.00 57 1014.7
20260901171028 65 275 3.0 9.0 0.00 0.00 0.00 56 1014.6
20260901170526 66 281 4.0 9.0 0.00 0.00 0.00 54 1014.5
20260901170025 67 283 2.0 7.0 0.00 0.00 0.00 53 1014.6
20260901165523 68 287 2.0 6.0 0.00 0.00 0.00 52 1014.4
20260901165021 68 290 3.0 6.0 0.00 0.00 0.00 51 1014.4
20260901164524 68 343 1.0 4.0 0.00 0.00 0.00 51 1014.3
20260901164018 67 16 1.0 4.0 0.00 0.00 0.00 51 1014.3
20260901163518 67 71 2.0 4.0 0.00 0.00 0.00 52 1014.3
20260901163018 66 32 0.0 6.0 0.00 0.00 0.00 52 1014.3
20260901162514 65 25 3.0 6.0 0.00 0.00 0.00 52 1014.2
20260901162015 65 29 2.0 5.0 0.00 0.00 0.00 53 1014.1
20260901161513 65 34 1.0 6.0 0.00 0.00 0.00 56 1014.1
20260901161013 64 42 2.0 4.0 0.00 0.00 0.00 56 1014.0
20260901160510 64 22 1.0 4.0 0.00 0.00 0.00 57 1013.9
20260901160016 64 69 2.0 4.0 0.00 0.00 0.00 56 1013.8
20260901155508 64 65 2.0 4.0 0.00 0.00 0.00 57 1013.9
20260901155007 63 55 1.0 4.0 0.00 0.00 0.00 57 1013.8
20260901154505 63 71 2.0 6.0 0.00 0.00 0.00 57 1013.6
20260901154005 62 74 1.0 7.0 0.00 0.00 0.00 58 1013.5
20260901153505 62 85 3.0 9.0 0.00 0.00 0.00 58 1013.5
20260901153003 61 86 3.0 9.0 0.00 0.00 0.00 59 1013.4
20260901152502 60 57 2.0 8.0 0.00 0.00 0.00 62 1013.3
20260901152003 60 67 3.0 6.0 0.00 0.00 0.00 63 1013.2
20260901151605 59 74 3.0 6.0 0.00 0.00 0.00 64 1013.2
20260901151100 58 67 2.0 6.0 0.00 0.00 0.00 65 1013.2
20260901150556 57 60 3.0 6.0 0.00 0.00 0.00 66 1013.0
20260901150056 57 64 2.0 6.0 0.00 0.00 0.00 69 1013.1
20260901145554 56 45 2.0 4.0 0.00 0.00 0.00 70 1013.1
20260901145052 55 40 2.0 4.0 0.00 0.00 0.00 70 1013.1
20260901144552 55 53 2.0 4.0 0.00 0.00 0.00 73 1013.1
20260901144053 54 44 1.0 3.0 0.00 0.00 0.00 73 1013.0
20260901143549 53 334 1.0 3.0 0.00 0.00 0.00 77 1013.0
20260901143102 52 241 0.0 0.0 0.00 0.00 0.00 80 1012.9
20260901142546 51 242 0.0 0.0 0.00 0.00 0.00 81 1012.9
20260901142044 51 242 0.0 0.0 0.00 0.00 0.00 81 1012.8
20260901141546 51 242 0.0 0.0 0.00 0.00 0.00 80 1012.9
20260901141044 51 242 0.0 0.0 0.00 0.00 0.00 79 1012.8
20260901140540 51 242 0.0 0.0 0.00 0.00 0.00 79 1012.9
20260901140042 51 242 0.0 0.0 0.00 0.00 0.00 78 1012.8
20260901135538 51 242 0.0 0.0 0.00 0.00 0.00 78 1012.8
20260901135037 52 242 0.0 1.0 0.00 0.00 0.00 77 1012.8
20260901134538 52 242 0.0 1.0 0.00 0.00 0.00 77 1012.7
20260901134034 52 242 0.0 2.0 0.00 0.00 0.00 75 1012.6
20260901133532 53 242 1.0 2.0 0.00 0.00 0.00 74 1012.6
20260901133032 53 241 0.0 3.0 0.00 0.00 0.00 72 1012.4
20260901132530 54 240 0.0 3.0 0.00 0.00 0.00 69 1012.3
20260901132029 55 245 0.0 4.0 0.00 0.00 0.00 66 1012.3
20260901131527 56 260 2.0 5.0 0.00 0.00 0.00 65 1012.4
20260901131025 57 283 3.0 6.0 0.00 0.00 0.00 59 1012.3
20260901130524 58 279 2.0 7.0 0.00 0.00 0.00 58 1012.4
20260901130028 59 271 1.0 4.0 0.00 0.00 0.00 56 1012.3
20260901125522 59 72 0.0 5.0 0.00 0.00 0.00 56 1012.2
20260901125022 59 73 1.0 5.0 0.00 0.00 0.00 56 1012.1
20260901124531 59 73 3.0 5.0 0.00 0.00 0.00 56 1011.9
20260901124021 59 84 3.0 6.0 0.00 0.00 0.00 56 1011.9
20260901123520 59 94 3.0 6.0 0.00 0.00 0.00 56 1011.9
20260901123037 59 88 3.0 6.0 0.00 0.00 0.00 56 1012.0
20260901122519 59 72 2.0 5.0 0.00 0.00 0.00 55 1012.0
20260901122018 59 65 2.0 4.0 0.00 0.00 0.00 55 1012.0
20260901121518 59 70 2.0 4.0 0.00 0.00 0.00 55 1012.0
20260901121018 59 82 2.0 4.0 0.00 0.00 0.00 55 1012.0
20260901120518 60 89 2.0 6.0 0.00 0.00 0.00 55 1012.0
20260901120027 60 90 2.0 6.0 0.00 0.00 0.00 54 1011.9
20260901115516 60 90 2.0 4.0 0.00 0.00 0.00 54 1011.8
20260901115016 60 84 2.0 4.0 0.00 0.00 0.00 54 1011.9
20260901114514 61 76 2.0 4.0 0.00 0.00 0.00 53 1011.9
20260901114014 61 76 1.0 3.0 0.00 0.00 0.00 53 1011.9
20260901113514 61 76 0.0 2.0 0.00 0.00 0.00 52 1011.9
20260901113014 61 75 0.0 1.0 0.00 0.00 0.00 52 1011.8
20260901112513 61 75 0.0 2.0 0.00 0.00 0.00 52 1011.8
20260901112014 61 75 0.0 4.0 0.00 0.00 0.00 52 1011.7
20260901111516 61 74 1.0 4.0 0.00 0.00 0.00 52 1011.6
20260901111013 61 74 2.0 5.0 0.00 0.00 0.00 52 1011.5
20260901110515 60 74 3.0 5.0 0.00 0.00 0.00 52 1011.4
20260901110013 60 79 3.0 8.0 0.00 0.00 0.00 53 1011.3
20260901105513 60 61 4.0 8.0 0.00 0.00 0.00 54 1011.3
20260901105011 60 73 3.0 5.0 0.00 0.00 0.00 54 1011.3
20260901104513 60 75 4.0 5.0 0.00 0.00 0.00 54 1011.4
20260901104011 60 77 3.0 5.0 0.00 0.00 0.00 54 1011.5
20260901103510 60 78 2.0 4.0 0.00 0.00 0.00 54 1011.5
20260901103009 60 78 1.0 4.0 0.00 0.00 0.00 54 1011.4
20260901102509 60 78 2.0 4.0 0.00 0.00 0.00 54 1011.4
20260901102009 60 78 1.0 3.0 0.00 0.00 0.00 54 1011.5
20260901101509 60 78 0.0 3.0 0.00 0.00 0.00 54 1011.4
20260901101008 60 78 1.0 4.0 0.00 0.00 0.00 54 1011.4
20260901100507 60 79 2.0 4.0 0.00 0.00 0.00 54 1011.4
20260901100007 60 80 1.0 3.0 0.00 0.00 0.00 54 1011.4
20260901095506 61 80 1.0 3.0 0.00 0.00 0.00 54 1011.5
20260901095005 61 75 1.0 3.0 0.00 0.00 0.00 54 1011.6
20260901094511 61 75 0.0 3.0 0.00 0.00 0.00 54 1011.5
20260901094004 61 75 1.0 4.0 0.00 0.00 0.00 54 1011.6
20260901093504 61 71 2.0 4.0 0.00 0.00 0.00 54 1011.4
20260901093003 61 71 1.0 4.0 0.00 0.00 0.00 54 1011.5
20260901092503 61 73 3.0 5.0 0.00 0.00 0.00 54 1011.5
20260901092004 61 73 2.0 6.0 0.00 0.00 0.00 54 1011.5
20260901091503 61 68 2.0 6.0 0.00 0.00 0.00 54 1011.6
20260901091002 61 72 3.0 9.0 0.00 0.00 0.00 54 1011.6
20260901090501 61 78 4.0 9.0 0.00 0.00 0.00 54 1011.6
20260901090005 61 76 2.0 6.0 0.00 0.00 0.00 54 1011.6
20260901085500 61 72 2.0 6.0 0.00 0.00 0.00 54 1011.6
20260901085059 61 91 3.0 6.0 0.00 0.00 0.00 54 1011.6
20260901084559 61 81 3.0 5.0 0.00 0.00 0.00 54 1011.9
20260901084101 61 74 3.0 5.0 0.00 0.00 0.00 55 1011.7
20260901083558 61 80 3.0 5.0 0.00 0.00 0.00 54 1011.7
20260901083058 61 86 2.0 4.0 0.00 0.00 0.00 54 1011.7
20260901082557 61 87 2.0 4.0 0.00 0.00 0.00 54 1011.8
20260901082056 62 81 3.0 4.0 0.00 0.00 0.00 53 1011.7
20260901081555 62 79 2.0 5.0 0.00 0.00 0.00 54 1011.8
20260901081054 62 70 2.0 5.0 0.00 0.00 0.00 53 1011.8
20260901080556 62 73 3.0 6.0 0.00 0.00 0.00 53 1011.9
20260901080053 63 62 1.0 3.0 0.00 0.00 0.00 56 1012.0
20260901075551 63 278 1.0 3.0 0.00 0.00 0.00 55 1011.9
20260901075050 63 277 1.0 3.0 0.00 0.00 0.00 55 1012.0
20260901074550 63 275 1.0 2.0 0.00 0.00 0.00 55 1012.0
20260901074050 63 274 0.0 1.0 0.00 0.00 0.00 55 1012.0
20260901073549 63 274 0.0 1.0 0.00 0.00 0.00 54 1012.0
20260901073050 63 274 0.0 2.0 0.00 0.00 0.00 53 1011.9
20260901072549 63 274 0.0 2.0 0.00 0.00 0.00 53 1011.9
20260901072047 63 274 0.0 2.0 0.00 0.00 0.00 52 1011.8
20260901071545 64 274 0.0 2.0 0.00 0.00 0.00 52 1011.9
20260901071045 64 273 0.0 2.0 0.00 0.00 0.00 51 1011.8
20260901070545 64 273 0.0 0.0 0.00 0.00 0.00 51 1011.8
20260901070046 64 272 0.0 0.0 0.00 0.00 0.00 50 1011.7
20260901065544 64 272 0.0 0.0 0.00 0.00 0.00 50 1011.7
20260901065043 64 272 0.0 0.0 0.00 0.00 0.00 50 1011.7
20260901064543 64 272 0.0 0.0 0.00 0.00 0.00 50 1011.8
20260901064045 64 272 0.0 0.0 0.00 0.00 0.00 50 1011.7
20260901063543 64 272 0.0 0.0 0.00 0.00 0.00 50 1011.7
20260901063056 64 273 0.0 2.0 0.00 0.00 0.00 50 1011.6
20260901062543 64 273 0.0 2.0 0.00 0.00 0.00 50 1011.6
20260901062044 64 273 0.0 2.0 0.00 0.00 0.00 51 1011.6
20260901061552 64 272 0.0 1.0 0.00 0.00 0.00 51 1011.6
20260901061042 64 272 0.0 0.0 0.00 0.00 0.00 51 1011.6
20260901060543 64 272 0.0 2.0 0.00 0.00 0.00 51 1011.6
20260901060042 64 272 0.0 2.0 0.00 0.00 0.00 50 1011.6
20260901055541 64 272 0.0 0.0 0.00 0.00 0.00 50 1011.6
20260901055041 64 272 0.0 0.0 0.00 0.00 0.00 50 1011.6
20260901054541 64 272 0.0 0.0 0.00 0.00 0.00 50 1011.7
20260901054041 64 272 0.0 1.0 0.00 0.00 0.00 50 1011.7
20260901053543 64 272 0.0 1.0 0.00 0.00 0.00 50 1011.7
20260901053047 64 271 0.0 1.0 0.00 0.00 0.00 50 1011.8
20260901052540 64 271 0.0 2.0 0.00 0.00 0.00 50 1011.7
20260901052042 64 271 0.0 2.0 0.00 0.00 0.00 50 1011.7
20260901051542 65 271 0.0 2.0 0.00 0.00 0.00 49 1011.8
20260901051040 65 271 0.0 1.0 0.00 0.00 0.00 48 1011.7
20260901050540 65 271 0.0 2.0 0.00 0.00 0.00 48 1011.6
20260901050040 65 271 0.0 2.0 0.00 0.00 0.00 47 1011.5
20260901045539 65 271 0.0 2.0 0.00 0.00 0.00 46 1011.5
20260901045040 65 271 0.0 2.0 0.00 0.00 0.00 46 1011.5
20260901044539 65 272 0.0 1.0 0.00 0.00 0.00 46 1011.5
20260901044040 65 272 0.0 1.0 0.00 0.00 0.00 46 1011.4
20260901043539 66 272 0.0 1.0 0.00 0.00 0.00 46 1011.4
20260901043040 66 272 0.0 1.0 0.00 0.00 0.00 47 1011.4
20260901042538 66 272 0.0 1.0 0.00 0.00 0.00 47 1011.4
20260901042039 66 272 0.0 2.0 0.00 0.00 0.00 47 1011.4
20260901041538 66 272 0.0 3.0 0.00 0.00 0.00 46 1011.4
20260901041038 66 272 0.0 3.0 0.00 0.00 0.00 45 1011.5
20260901040538 66 272 1.0 4.0 0.00 0.00 0.00 45 1011.4
20260901040039 67 274 1.0 4.0 0.00 0.00 0.00 44 1011.3
20260901035538 67 274 2.0 6.0 0.00 0.00 0.00 44 1011.2
20260901035037 67 273 3.0 6.0 0.00 0.00 0.00 43 1011.2
20260901034538 67 271 1.0 4.0 0.00 0.00 0.00 43 1011.1
20260901034039 67 271 2.0 3.0 0.00 0.00 0.00 42 1011.0
20260901033537 68 248 1.0 3.0 0.00 0.00 0.00 41 1011.0
20260901033037 68 246 1.0 4.0 0.00 0.00 0.00 41 1011.1
20260901032537 68 227 1.0 4.0 0.00 0.00 0.00 41 1011.1
20260901032037 69 248 0.0 3.0 0.00 0.00 0.00 40 1011.1
20260901031536 69 255 1.0 3.0 0.00 0.00 0.00 40 1011.1
20260901031036 69 227 1.0 3.0 0.00 0.00 0.00 40 1010.9
20260901030540 69 261 1.0 3.0 0.00 0.00 0.00 39 1010.8
20260901030036 70 262 1.0 3.0 0.00 0.00 0.00 39 1010.7
20260901025536 70 260 2.0 4.0 0.00 0.00 0.00 39 1010.7
20260901025036 70 261 1.0 4.0 0.00 0.00 0.00 39 1010.6
20260901024535 71 261 2.0 4.0 0.00 0.00 0.00 38 1010.6
20260901024036 71 263 2.0 4.0 0.00 0.00 0.00 38 1010.5
20260901023535 72 238 1.0 3.0 0.00 0.00 0.00 37 1010.5
20260901023040 72 236 1.0 3.0 0.00 0.00 0.00 37 1010.5
20260901022536 72 242 1.0 3.0 0.00 0.00 0.00 36 1010.4
20260901022038 73 263 1.0 4.0 0.00 0.00 0.00 36 1010.5
20260901021541 73 278 2.0 6.0 0.00 0.00 0.00 35 1010.4
20260901021037 74 263 2.0 7.0 0.00 0.00 0.00 35 1010.4
20260901020535 74 281 3.0 7.0 0.00 0.00 0.00 34 1010.4
20260901020043 75 284 2.0 10.0 0.00 0.00 0.00 34 1010.5
20260901015533 75 283 4.0 10.0 0.00 0.00 0.00 34 1010.5
20260901015033 75 249 2.0 7.0 0.00 0.00 0.00 34 1010.5
20260901014533 75 265 2.0 9.0 0.00 0.00 0.00 34 1010.6
20260901014034 76 281 3.0 10.0 0.00 0.00 0.00 33 1010.6
20260901013536 76 275 5.0 12.0 0.00 0.00 0.00 33 1010.6
20260901013033 76 283 4.0 12.0 0.00 0.00 0.00 33 1010.6
20260901012532 77 273 3.0 9.0 0.00 0.00 0.00 32 1010.6
20260901012032 77 269 5.0 9.0 0.00 0.00 0.00 32 1010.6
20260901011532 77 271 1.0 10.0 0.00 0.00 0.00 32 1010.6
20260901011033 78 244 4.0 8.0 0.00 0.00 0.00 32 1010.5
20260901010533 78 280 3.0 8.0 0.00 0.00 0.00 31 1010.6
20260901010031 79 277 2.0 6.0 0.00 0.00 0.00 30 1010.6
20260901005533 79 262 2.0 8.0 0.00 0.00 0.00 30 1010.6
20260901005032 79 281 3.0 10.0 0.00 0.00 0.00 30 1010.5
20260901004529 79 277 4.0 10.0 0.00 0.00 0.00 29 1010.6
20260901004028 79 277 4.0 10.0 0.00 0.00 0.00 29 1010.5
20260901003529 80 229 2.0 8.0 0.00 0.00 0.00 28 1010.6
20260901003027 80 270 3.0 8.0 0.00 0.00 0.00 28 1010.6
20260901002527 80 267 1.0 6.0 0.00 0.00 0.00 28 1010.6
20260901002029 80 240 3.0 7.0 0.00 0.00 0.00 28 1010.6
20260901001526 80 265 4.0 13.0 0.00 0.00 0.00 28 1010.5
20260901001026 81 274 5.0 13.0 0.00 0.00 0.00 27 1010.6
20260901000526 81 259 2.0 8.0 0.00 0.00 0.00 27 1010.8
20260901000026 81 285 2.0 9.0 0.00 0.00 0.00 27 1010.7
20260831235526 81 270 4.0 9.0 0.00 0.00 0.00 27 1010.9
20260831235026 81 277 4.0 9.0 0.00 0.00 0.00 28 1010.7
20260831234526 80 244 1.0 7.0 0.00 0.00 0.00 28 1010.8
20260831234025 80 242 1.0 12.0 0.00 0.00 0.00 29 1010.8
20260831233527 79 172 5.0 14.0 0.00 0.00 0.00 29 1010.9
20260831233025 81 204 8.0 14.0 0.00 0.00 0.00 28 1010.8
20260831232524 83 188 4.0 14.0 0.00 0.00 0.00 27 1010.8
20260831232024 83 212 1.0 9.0 0.00 0.00 0.00 27 1010.9
20260831231524 83 284 4.0 9.0 0.00 0.00 0.00 27 1010.9
20260831231023 82 195 4.0 9.0 0.00 0.00 0.00 28 1010.9
20260831230524 82 259 3.0 10.0 0.00 0.00 0.00 28 1010.9
20260831230033 83 232 5.0 12.0 0.00 0.00 0.00 27 1010.9
20260831225523 84 212 3.0 12.0 0.00 0.00 0.00 27 1010.9
20260831225022 84 255 2.0 6.0 0.00 0.00 0.00 27 1010.9
20260831224522 83 296 1.0 10.0 0.00 0.00 0.00 28 1011.1
20260831224022 82 265 3.0 10.0 0.00 0.00 0.00 28 1011.2
20260831223522 82 196 4.0 10.0 0.00 0.00 0.00 29 1011.2
20260831223022 82 215 3.0 9.0 0.00 0.00 0.00 28 1011.2
20260831222525 82 250 4.0 12.0 0.00 0.00 0.00 28 1011.2
20260831222021 82 269 5.0 12.0 0.00 0.00 0.00 28 1011.2
20260831221522 83 184 6.0 11.0 0.00 0.00 0.00 27 1011.3
20260831221022 83 215 3.0 11.0 0.00 0.00 0.00 28 1011.4